[[{"header":{"parameterUnit":"m.s-1","parameterCategory":1,"la1":30.2992,"la2":30.254,"lo1":-89.0895,"lo2":-89.0443,"dy":0.0025,"dx":0.0025,"nx":19,"ny":19,"refTime":"2026-05-03T03:00:00:Z","depth":0,"parameterNumber":2,"parameterNumberName":"U-component_of_WINDS"},"data":[0,0,0,1.7897,1.7898,1.798,1.798,1.8087,1.8088,0,0,0,0,0,0,0,0,0,0,0,1.7876,1.7877,1.7896,1.7899,1.798,1.798,1.8087,1.8088,0,0,0,0,0,0,0,0,0,0,0,1.7876,1.7877,1.7878,1.7899,1.798,1.798,1.8086,1.8024,0,0,0,0,0,0,0,0,0,0,1.7944,1.7929,1.7876,1.7878,1.7899,1.798,1.798,1.8021,1.8028,1.8052,0,1.8075,0,1.8083,1.8095,1.8096,0,0,0,1.7896,1.7923,1.7942,1.7878,1.79,1.798,1.7942,1.8025,1.8032,1.8061,1.8077,1.8081,1.8085,1.8096,1.8097,1.8243,1.8244,0,0,1.7891,1.7893,1.7937,1.7947,1.7937,1.794,1.7945,1.8029,1.8046,1.8077,1.8083,1.8087,1.8097,1.8098,1.8243,1.8243,0,0,0,1.788,1.789,1.7906,1.7943,1.7957,1.7942,1.7948,1.8043,1.8048,1.8084,1.8088,1.8097,1.8099,1.8242,1.8243,1.8281,0,0,0,1.7878,1.7883,1.7904,1.7906,1.7956,1.8001,1.796,1.8042,1.8051,1.8087,1.8097,1.81,1.8241,1.8242,1.8278,1.8299,0,0,0,1.787,1.7882,1.7895,1.7906,1.7941,1.8,1.801,1.8044,1.8054,1.8096,1.81,1.824,1.8242,1.8276,1.8295,1.8335,0,0,0,1.7861,1.7931,1.7896,1.7974,1.794,1.8024,1.801,1.8073,1.8113,1.8098,1.8241,1.8243,1.8275,1.8292,1.8332,1.8367,1.8383,0,0,1.795,1.7942,1.7988,1.7958,1.8049,1.8012,1.8107,1.8144,1.8148,1.8211,1.8214,1.8279,1.8295,1.8334,1.8474,1.8486,0,0,0,1.8016,1.8048,1.8072,1.811,1.8139,1.8164,1.8186,1.8199,1.8252,1.8181,1.8306,1.8315,1.8339,1.8355,1.8366,1.8384,1.8251,1.8251,1.8251,1.8142,1.8141,1.8215,1.8223,1.826,1.8279,1.8308,1.8328,1.8319,1.8348,1.8366,1.8451,1.847,1.8478,1.8497,1.8387,1.8387,1.8387,1.8387,1.8268,1.8313,1.8295,1.836,1.8357,1.8412,1.8432,1.8423,1.8472,1.8438,1.8459,1.842,1.8492,1.8508,1.839,1.839,1.8389,1.8389,1.8389,1.8349,1.8369,1.8383,1.8434,1.8474,1.8479,1.8525,1.8522,1.852,1.854,1.8556,1.8556,1.8552,1.8549,1.8549,1.8549,1.8549,1.855,1.855,1.8426,1.8439,1.8479,1.8512,1.8533,1.8561,1.8579,1.86,1.8621,1.8615,1.8615,1.86,1.85,1.8473,1.8554,1.8553,1.8553,1.8552,1.8552,1.855,1.852,1.8581,1.8603,1.8638,1.8675,1.867,1.8711,1.8728,1.875,1.873,1.8657,1.8649,1.8641,1.8618,1.8732,1.8732,1.8732,1.8732,1.8615,1.8611,1.8669,1.8702,1.8735,1.8735,1.88,1.8813,1.8822,1.8831,1.8814,1.8785,1.8777,1.8773,1.8762,1.8741,1.8884,1.8884,1.8884,1.869,1.8687,1.8744,1.8752,1.8778,1.8801,1.8861,1.8897,1.8902,1.889,1.8837,1.8831,1.8783,1.8769,1.8755,1.8738,1.8699,0,0]},{"header":{"parameterUnit":"m.s-1","parameterCategory":1,"la1":30.2992,"la2":30.254,"lo1":-89.0895,"lo2":-89.0443,"dy":0.0025,"dx":0.0025,"nx":19,"ny":19,"refTime":"2026-05-03T03:00:00:Z","depth":0,"parameterNumber":3,"parameterNumberName":"V-component_of_WINDS"},"data":[0,0,0,2.2928,2.2928,2.293,2.293,2.2938,2.2938,0,0,0,0,0,0,0,0,0,0,0,2.2934,2.2934,2.2928,2.2928,2.293,2.293,2.2938,2.2938,0,0,0,0,0,0,0,0,0,0,0,2.2934,2.2934,2.2935,2.2928,2.293,2.293,2.2938,2.2934,0,0,0,0,0,0,0,0,0,0,2.2931,2.2944,2.2934,2.2935,2.2928,2.293,2.293,2.2934,2.2934,2.2941,0,2.2951,0,2.2945,2.294,2.294,0,0,0,2.2923,2.2944,2.2938,2.2935,2.2928,2.293,2.2927,2.2934,2.2935,2.2942,2.2951,2.2951,2.2945,2.294,2.294,2.3,2.3,0,0,2.2923,2.2937,2.2938,2.2939,2.2942,2.2927,2.2928,2.2934,2.2944,2.2951,2.2951,2.2945,2.294,2.294,2.2999,2.3,0,0,0,2.2926,2.2938,2.2932,2.2939,2.2939,2.2928,2.2928,2.2944,2.2941,2.2951,2.2945,2.294,2.294,2.2999,2.3,2.304,0,0,0,2.2926,2.294,2.2932,2.2941,2.2939,2.2942,2.2938,2.2941,2.2941,2.2945,2.294,2.294,2.2998,2.2999,2.3037,2.3056,0,0,0,2.2931,2.294,2.2943,2.2942,2.2943,2.2942,2.2939,2.294,2.2938,2.294,2.294,2.2998,2.2999,2.3035,2.3052,2.3074,0,0,0,2.2942,2.2979,2.2944,2.2983,2.2943,2.2967,2.2938,2.2955,2.2962,2.294,2.2998,2.3,2.3035,2.305,2.3072,2.3095,2.3107,0,0,2.2997,2.2987,2.3008,2.2976,2.301,2.2966,2.3004,2.2996,2.2982,2.2994,2.2995,2.3038,2.3052,2.3074,2.3167,2.3176,0,0,0,2.3031,2.3046,2.3052,2.306,2.3055,2.305,2.3035,2.3031,2.304,2.2992,2.3052,2.306,2.3072,2.3082,2.309,2.3098,2.3005,2.3005,2.3005,2.3131,2.3111,2.3144,2.3124,2.3131,2.3113,2.3116,2.3107,2.3086,2.31,2.3103,2.3162,2.3175,2.318,2.3189,2.3115,2.3115,2.3115,2.3115,2.3209,2.3227,2.3195,2.3217,2.3194,2.3211,2.3194,2.3177,2.3188,2.3159,2.3168,2.3137,2.3191,2.3197,2.3118,2.3117,2.3117,2.3117,2.3117,2.3271,2.3276,2.3271,2.3277,2.3284,2.3261,2.3272,2.3251,2.3232,2.3241,2.3241,2.324,2.3235,2.3243,2.3243,2.3243,2.3243,2.3243,2.3243,2.3337,2.333,2.3343,2.3339,2.3339,2.3336,2.3317,2.3316,2.3309,2.3292,2.3292,2.3267,2.3201,2.3184,2.3247,2.3246,2.3246,2.3245,2.3245,2.3422,2.3399,2.3419,2.3419,2.341,2.3416,2.3389,2.3388,2.3384,2.3389,2.3362,2.3317,2.3304,2.3297,2.3283,2.3368,2.3368,2.3368,2.3368,2.3473,2.3465,2.3479,2.348,2.3478,2.3455,2.3474,2.3458,2.3437,2.3432,2.3417,2.3396,2.3391,2.3381,2.3373,2.3359,2.3461,2.3461,2.3461,2.3523,2.3513,2.3535,2.3515,2.3506,2.3498,2.3514,2.3514,2.3486,2.3465,2.3428,2.3424,2.339,2.3381,2.3359,2.3347,2.3321,0,0]}]]